Location: McFarlands Corners
(41.4117°N, 81.3382°W)
Time: 05:33:20
(UTC+00:00)

Transit 4A - Pass Details

Date: 21 February 2026
Orbit: 864 x 977 km, 66.8° (Epoch: 5 March)

Event Time Altitude Azimuth Distance (km) Brightness Sun altitude
Rises 18:31:40 0° 318° (NW) 3,630 10.7 36.8°
Reaches altitude 10° 18:34:37 10° 306° (NW) 2,696 10.3 36.7°
Maximum altitude 18:39:38 26° 253° (WSW) 1,826 10.2 36.4°
Drops below altitude 10° 18:44:41 10° 200° (SSW) 2,714 11.7 36.1°
Sets 18:47:41 0° 188° (S) 3,659 12.0 35.9°
